Estación de La Unión Norte

Ultimos registro cada 15 minutos 64
Estación Fecha / Hora Temperatura Humedad Lluvia Velocidad Dirección Radiación Presion
64 La Unión Norte 10-05-2026 15:45 19,5 62,1 0 0 181 224,4 1017,8
63 La Unión Norte 10-05-2026 15:30 19,6 60,7 0 0 181 273,1 1017,9
62 La Unión Norte 10-05-2026 15:15 19,2 62,7 0 0 180 285,6 1017,9
61 La Unión Norte 10-05-2026 15:00 18,6 62,9 0 0 190 316,9 1017,9
60 La Unión Norte 10-05-2026 14:45 17,9 63,9 0 0 225 330,6 1017,9
59 La Unión Norte 10-05-2026 14:30 17,9 64 0 0 205 355,6 1018,2
58 La Unión Norte 10-05-2026 14:15 16,8 65,5 0 0 202 366,9 1018,3
57 La Unión Norte 10-05-2026 14:00 16,5 65 0 0 183 376,9 1018,5
56 La Unión Norte 10-05-2026 13:45 16,2 68,9 0 0 215 389,4 1018,4
55 La Unión Norte 10-05-2026 13:30 15,4 69,7 0 0 201 398,1 1018,6
54 La Unión Norte 10-05-2026 13:15 14,2 70,1 0 0 192 406,9 1018,9
53 La Unión Norte 10-05-2026 13:00 13,5 71,8 0 0 185 409,4 1018,7
52 La Unión Norte 10-05-2026 12:45 12,9 75 0 0 218 404,4 1019,1
51 La Unión Norte 10-05-2026 12:30 12,9 77 0 0 160 408,1 1019
50 La Unión Norte 10-05-2026 12:15 12,1 79 0 0 170 404,4 1019,8
49 La Unión Norte 10-05-2026 12:00 11,2 80,8 0 0 215 398,1 1020
48 La Unión Norte 10-05-2026 11:45 10,5 83,3 0 0 177 370,6 1020,3
47 La Unión Norte 10-05-2026 11:30 10 86,1 0 0 168 369,4 1020,5
46 La Unión Norte 10-05-2026 11:15 9 92,3 0 0 183 346,9 1020,7
45 La Unión Norte 10-05-2026 11:00 8,5 97,1 0 0 185 320,6 1020,9
44 La Unión Norte 10-05-2026 10:45 7,3 98,2 0 0 187 299,4 1021
43 La Unión Norte 10-05-2026 10:30 6,2 98,5 0 0 187 270,6 1021,1
42 La Unión Norte 10-05-2026 10:15 5,4 98,8 0 0 187 250,6 1021,2
41 La Unión Norte 10-05-2026 10:00 4,4 98,9 0 0 187 220,6 1021,3
40 La Unión Norte 10-05-2026 09:45 3,5 99 0 0 187 30,6 1021,3
39 La Unión Norte 10-05-2026 09:30 2,9 99,1 0 0 187 23,1 1021,4
38 La Unión Norte 10-05-2026 09:15 2 99 0 0 187 19,4 1021,3
37 La Unión Norte 10-05-2026 09:00 1,2 99 0 0 187 15,6 1021,1
36 La Unión Norte 10-05-2026 08:45 0,7 98,9 0 0 187 14,4 1021,2
35 La Unión Norte 10-05-2026 08:30 0,5 98,9 0 0 187 11,9 1021,1
34 La Unión Norte 10-05-2026 08:15 0,1 98,8 0 0 187 8,1 1021
33 La Unión Norte 10-05-2026 08:00 -0,1 98,8 0 0 187 4,4 1021,1
32 La Unión Norte 10-05-2026 07:45 -0,1 98,7 0 0 187 0,6 1021,2
31 La Unión Norte 10-05-2026 07:30 0 98,7 0 0 187 0,6 1021,1
30 La Unión Norte 10-05-2026 07:15 -0,1 98,6 0 0 187 0,6 1021,3
29 La Unión Norte 10-05-2026 07:00 0,1 98,7 0 0 187 0,6 1021,5
28 La Unión Norte 10-05-2026 06:45 0,2 98,6 0 0 187 0,6 1021,6
27 La Unión Norte 10-05-2026 06:30 0,2 98,5 0 0 187 0,6 1021,5
26 La Unión Norte 10-05-2026 06:15 0,1 98,3 0 0 187 0,6 1021,3
25 La Unión Norte 10-05-2026 06:00 0,5 98,5 0 0 187 0,6 1021,3
24 La Unión Norte 10-05-2026 05:45 0,6 98,4 0 0 187 0,6 1021,1
23 La Unión Norte 10-05-2026 05:30 0,5 98,4 0 0 187 0,6 1021,1
22 La Unión Norte 10-05-2026 05:15 0,5 98,3 0 0 187 0,6 1021,1
21 La Unión Norte 10-05-2026 05:00 0,7 98,4 0 0 187 0,6 1021,3
20 La Unión Norte 10-05-2026 04:45 0,5 98,1 0 0 187 0,6 1021
19 La Unión Norte 10-05-2026 04:30 0,9 98,1 0 0 187 0,6 1021,1
18 La Unión Norte 10-05-2026 04:15 0,9 98,2 0 0 187 0,6 1021
17 La Unión Norte 10-05-2026 04:00 1 98 0 0 187 0,6 1021
16 La Unión Norte 10-05-2026 03:45 1,2 98 0 0 187 0,6 1021,3
15 La Unión Norte 10-05-2026 03:30 1,2 98 0 0 187 0,6 1020,9
14 La Unión Norte 10-05-2026 03:15 1,4 98 0 0 187 0,6 1021,3
13 La Unión Norte 10-05-2026 03:00 1,4 97,9 0 0 187 0,6 1021,4
12 La Unión Norte 10-05-2026 02:45 1,5 97,9 0 0 187 0,6 1021,5
11 La Unión Norte 10-05-2026 02:30 1,6 97,8 0 0 187 0,6 1021,5
10 La Unión Norte 10-05-2026 02:15 1,4 97,5 0 0 187 0,6 1021,6
9 La Unión Norte 10-05-2026 02:00 1,6 97,6 0 0 187 0,6 1021,7
8 La Unión Norte 10-05-2026 01:45 1,8 97,5 0 0 187 0,6 1021,5
7 La Unión Norte 10-05-2026 01:30 2 97,3 0 0 187 0,6 1021,6
6 La Unión Norte 10-05-2026 01:15 2 97,3 0 0 187 0,6 1021,6
5 La Unión Norte 10-05-2026 01:00 2,2 97,1 0 0 187 0,6 1021,6
4 La Unión Norte 10-05-2026 00:45 2,4 97 0 0 187 0,6 1021,8
3 La Unión Norte 10-05-2026 00:30 2,6 97,1 0 0 187 0,6 1022
2 La Unión Norte 10-05-2026 00:15 2,8 97 0 0 187 0,6 1022,1
1 La Unión Norte 10-05-2026 00:00 2,9 96,8 0 0 187 0,6 1022,3